Cloud_Cover
0 0 2 5 5 5 100 100 100 85 100 100 100 100 70 4 3 37 6 15 48 100 100 100 100 100 100 34 19 30 5 90 37 33 96 100 100 100 100 75 95 100 100 98
0 0 1 5 5 60 100 100 100 98 100 100 100 100 100 17 8 4 5 59 60 100 94 100 100 100 100 100 100 100 99 23 16 8 76 92 87 100 100 82 100 100 100 100
0 5 5 6 25 99 100 100 100 100 100 100 100 100 100 100 76 13 4 16 59 29 7 60 100 100 100 100 100 100 100 100 96 67 100 75 100 100 100 100 100 100 100 100
1 5 5 100 86 100 100 100 100 100 100 100 100 100 100 100 100 60 5 5 5 5 26 12 9 30 47 68 100 100 88 19 5 85 100 63 100 99 100 100 96 100 100 100
4 5 70 100 100 100 100 100 100 100 100 100 100 100 100 100 100 59 67 6 6 5 22 4 6 83 75 33 71 100 87 86 30 100 97 100 100 100 98 100 100 100 100 100
5 42 98 100 100 100 100 100 91 100 100 100 100 100 100 98 65 64 100 65 100 6 26 99 68 59 99 80 97 100 99 100 55 47 100 100 98 100 99 80 99 100 100 100
6 99 100 100 100 100 100 100 100 100 100 100 100 100 100 95 85 100 98 33 100 38 100 100 100 100 100 100 86 98 100 73 73 51 91 100 94 99 90 66 100 100 100 100
19 69 100 100 100 100 100 100 100 100 100 100 100 100 100 100 100 100 100 100 100 100 99 100 100 100 90 100 100 100 100 56 29 30 80 30 95 100 100 100 100 100 100 100
99 100 100 100 100 100 100 100 100 100 100 93 100 100 100 100 100 100 100 100 100 100 100 100 100 100 89 100 100 99 85 41 38 86 31 55 100 100 100 100 100 89 76 64
41 30 98 100 100 100 100 100 100 100 100 100 100 100 100 100 100 100 100 100 100 100 100 100 98 98 100 45 95 98 55 72 70 95 51 61 100 100 94 23 94 70 100 100
5 72 100 100 100 100 100 100 100 100 100 100 100 100 100 100 100 100 100 100 100 100 100 100 100 100 59 28 97 100 90 100 47 10 71 100 37 100 95 62 97 99 100 100
21 100 100 100 100 100 100 100 100 100 100 100 100 100 100 100 100 100 100 100 100 100 100 100 100 100 79 70 100 100 26 81 100 100 100 100 100 100 100 100 100 100 100 100
13 100 100 100 100 100 100 100 100 100 100 100 100 100 100 100 100 100 100 100 100 100 100 100 100 100 100 100 100 100 100 99 100 100 100 100 100 96 99 86 100 100 100 100
62 100 100 100 100 100 100 100 100 100 100 100 100 100 100 100 100 100 100 100 100 100 100 100 100 100 100 100 100 100 100 100 100 100 100 100 100 100 95 100 100 100 100 100
100 100 100 100 100 100 100 100 100 100 100 100 100 100 100 100 100 100 100 100 100 100 100 100 100 100 100 100 100 100 100 100 100 100 100 100 100 100 50 93 100 100 100 63
100 100 100 100 100 100 100 100 100 100 100 100 100 100 100 100 100 100 100 100 100 100 100 100 100 100 100 100 100 100 100 100 100 100 100 100 100 100 100 59 52 5 82 100
100 100 100 100 100 100 100 100 100 100 100 100 100 100 100 100 100 100 100 100 100 100 100 100 100 100 100 100 100 100 100 48 50 98 100 100 99 97 100 100 100 97 7 91
100 100 100 100 100 100 100 100 100 100 100 100 100 100 100 100 100 100 100 100 100 100 100 100 100 100 100 100 100 100 100 100 90 5 24 93 97 100 95 56 100 100 12 5
100 100 74 100 100 100 100 100 100 100 100 100 100 100 100 100 100 100 100 100 100 100 100 100 100 100 100 100 100 100 100 100 100 99 26 68 38 99 82 99 84 90 5 5
100 100 100 100 100 100 100 100 100 100 100 100 100 68 100 100 100 100 100 100 100 100 100 100 100 100 100 100 100 100 100 100 100 94 100 50 38 10 21 70 85 24 61 5
100 100 100 100 100 100 100 100 100 100 100 100 100 96 100 100 100 100 100 100 100 100 100 100 100 100 100 100 97 88 100 100 100 100 100 88 87 61 98 86 48 88 100 100
100 100 100 100 100 100 100 100 100 100 100 100 86 86 100 100 100 100 100 100 100 100 100 100 99 100 100 100 54 67 99 92 100 100 100 97 46 62 100 100 99 98 100 78
100 100 100 100 100 100 100 100 100 100 100 100 14 61 96 100 100 100 100 100 100 100 100 100 100 100 100 100 100 100 94 30 93 55 6 47 85 100 100 100 100 100 100 100
100 100 100 100 100 100 100 100 100 89 99 100 53 10 66 69 77 100 100 100 100 100 100 100 100 100 100 100 100 100 98 35 41 33 90 100 100 100 100 100 100 98 100 100
100 100 100 100 100 100 100 100 99 99 100 100 100 100 60 100 100 100 100 100 100 100 100 100 100 100 100 100 100 100 100 44 36 74 96 100 100 100 100 100 100 100 99 100
100 100 100 100 100 100 100 100 100 64 86 100 100 100 100 100 100 100 100 100 100 100 100 100 100 58 13 97 100 100 100 100 100 100 99 100 98 100 100 100 100 100 100 100
100 100 100 90 100 100 100 100 100 100 100 99 98 99 100 43 88 100 100 100 100 100 100 100 100 92 12 40 92 93 100 100 100 100 100 100 100 100 95 74 92 31 22 100